This demonstration page uses our WeatherBlox Daily Observations layout. Learn more.

Left ArrowRight Arrow

Hourly Observations for July 1, 2020

Temp ( °F °C ) Dew Point ( °F °C ) Humidity (%) Winds ( mph kmh ) Pressure ( in mb ) Visibility ( mi km ) Precip ( " mm )
12:53 am 00:53 Mostly Clear 72 22.2 63 17.2 73 73 N 17 28 29.73 1007 10 16 0.00 0.00
1:53 am 01:53 Cloudy 73 22.8 61 16.1 66 66 NNE 13 20 29.72 1007 10 16 0.00 0.00
2:53 am 02:53 Cloudy 72 22.2 60 15.6 66 66 NNE 13 20 29.72 1007 10 16 0.00 0.00
3:53 am 03:53 Mostly Cloudy 71 21.7 61 16.1 71 71 NNE 12 19 29.76 1008 10 16 0.00 0.00
4:53 am 04:53 Clear 68 20 62 16.7 81 81 N 9 15 29.77 1008 10 16 0.00 0.00
5:53 am 05:53 Clear 68 20 61 16.1 78 78 NNE 8 13 29.78 1008 10 16 0.00 0.00
6:53 am 06:53 Sunny 66 18.9 61 16.1 84 84 NNE 7 11 29.82 1010 10 16 0.00 0.00
7:53 am 07:53 Sunny 68 20 62 16.7 81 81 N 8 13 29.86 1011 10 16 0.00 0.00
8:53 am 08:53 Mostly Sunny 71 21.7 62 16.7 73 73 NNE 12 19 29.88 1012 10 16 0.00 0.00
9:53 am 09:53 Mostly Sunny 77 25 64 17.8 64 64 E 10 17 29.90 1013 10 16 0.00 0.00
10:53 am 10:53 Sunny 79 26.1 63 17.2 58 58 ESE 5 7 29.89 1012 10 16 0.00 0.00
11:53 am 11:53 Sunny 85 29.4 63 17.2 48 48 E 8 13 29.88 1012 10 16 0.00 0.00
12:53 pm 12:53 Sunny 88 31.1 53 11.7 30 30 ENE 10 17 29.88 1012 10 16 0.00 0.00
1:53 pm 13:53 Sunny 88 31.1 56 13.3 34 34 E 13 20 29.88 1012 10 16 0.00 0.00
2:53 pm 14:53 Sunny 89 31.7 56 13.3 33 33 ENE 7 11 29.88 1012 10 16 0.00 0.00
3:53 pm 15:53 Sunny 89 31.7 57 13.9 34 34 ENE 9 15 29.88 1012 10 16 0.00 0.00
4:53 pm 16:53 Sunny 89 31.7 60 15.6 38 38 ENE 12 19 29.89 1012 10 16 0.00 0.00
5:53 pm 17:53 Sunny 87 30.6 63 17.2 45 45 NE 8 13 29.89 1012 10 16 0.00 0.00
6:53 pm 18:53 Sunny 86 30 63 17.2 46 46 ENE 10 17 29.90 1012 10 16 0.00 0.00
7:53 pm 19:53 Sunny 83 28.3 66 18.9 57 57 E 9 15 29.90 1013 10 16 0.00 0.00
8:53 pm 20:53 Sunny 79 26.1 67 19.4 67 67 E 8 13 29.91 1013 10 16 0.00 0.00
9:53 pm 21:53 Clear 78 25.6 66 18.9 67 67 ESE 6 9 29.92 1013 10 16 0.00 0.00
10:53 pm 22:53 Clear 75 23.9 66 18.9 74 74 E 5 7 29.94 1014 10 16 0.00 0.00
11:53 pm 23:53 Clear 73 22.8 65 18.3 76 76 E 5 7 29.94 1014 10 16 0.00 0.00

Powered by AerisWeather